Theta_e
278 278 278 278 278 278 278 278 279 279 279 279 279 279 279 279 279 279 279 279 279 279 279 279 280 280 281 281 281 281 281 281 281 281 281 281 281 281 281 282 283 283 283 283 282 282 281 281 281 280 280 280 280 279 279 279 279 279 279 278 278 278 278 278 278 278 278 278 278
278 278 278 278 278 278 278 278 279 279 279 279 279 279 279 279 279 279 279 279 279 279 280 280 280 281 281 281 281 281 281 281 281 281 281 281 281 281 281 282 282 283 283 283 282 282 281 281 280 280 280 280 279 279 279 280 279 279 279 278 278 278 278 278 278 278 278 278 278
278 278 278 278 278 278 278 278 279 279 279 279 280 280 279 279 279 279 279 279 280 280 280 280 280 281 281 281 281 281 281 281 281 281 281 280 281 281 281 281 282 283 283 283 283 282 282 281 281 280 280 280 279 279 279 280 280 279 279 278 278 278 278 278 278 278 278 278 279
278 278 278 278 278 278 278 278 279 279 279 279 280 280 280 280 280 280 280 280 280 280 280 280 281 281 281 281 281 281 282 282 282 282 281 280 280 281 281 281 282 283 283 283 283 283 282 282 281 281 280 280 280 279 279 279 279 279 279 279 279 278 278 278 278 279 279 279 279
278 278 278 278 278 279 279 279 279 279 279 279 280 280 280 280 280 280 280 280 280 280 280 281 281 281 281 281 281 281 282 282 282 282 281 281 281 281 281 281 282 283 283 282 282 283 282 282 281 281 281 280 280 280 280 280 280 279 279 279 279 279 279 279 279 279 279 279 279
278 278 278 279 279 279 279 279 279 279 279 280 279 279 279 279 280 280 280 279 280 280 281 281 281 281 281 281 281 281 281 282 282 282 281 281 280 280 281 281 282 282 283 282 282 282 282 282 282 281 281 281 280 280 280 280 280 280 279 279 279 279 279 279 279 279 279 279 279
278 278 278 279 279 279 279 279 280 280 280 280 279 279 279 279 280 280 280 280 280 280 281 281 281 281 281 281 281 281 281 281 282 282 282 281 281 281 281 281 281 282 283 282 281 281 282 282 282 281 281 281 281 281 281 281 280 280 279 279 279 279 279 279 280 279 279 279 279
278 278 279 279 279 279 279 280 280 280 279 279 279 279 279 280 280 280 280 280 280 280 280 281 281 280 280 280 281 281 281 281 281 281 282 281 281 281 281 281 281 282 282 282 281 281 281 282 281 281 281 281 281 281 281 281 281 280 280 280 280 280 280 280 281 280 280 280 280
278 279 279 279 279 280 280 280 280 280 279 279 280 280 280 280 280 280 280 280 280 280 281 281 281 281 281 280 281 281 281 281 281 281 281 281 281 281 281 281 281 281 282 282 281 281 281 281 281 281 281 281 281 281 281 281 281 281 280 280 280 280 281 281 281 281 281 281 281
278 279 279 279 279 280 280 280 280 280 280 280 280 280 280 280 280 280 280 280 280 281 280 281 281 281 281 281 281 281 281 281 281 281 281 281 281 281 281 281 280 281 281 282 281 281 281 281 280 280 280 281 281 281 281 281 281 280 280 280 280 280 280 280 280 280 280 280 280
278 279 279 279 279 280 280 280 280 280 280 280 280 280 280 280 280 280 280 281 280 280 280 281 281 281 281 281 281 281 281 281 281 281 280 281 281 280 280 280 280 280 281 281 281 281 280 280 280 280 280 280 280 280 280 280 280 280 280 280 279 279 279 279 279 280 280 280 280
279 279 279 279 280 280 280 280 280 280 280 280 280 280 280 280 280 280 280 280 280 280 280 281 281 281 281 281 281 281 281 281 280 280 280 280 280 280 280 280 280 280 281 281 281 280 280 280 280 280 280 280 280 280 280 280 279 279 279 279 279 279 279 279 279 279 280 280 280
279 279 279 279 280 280 280 280 280 280 280 280 280 280 280 280 280 280 280 280 280 280 280 281 281 281 281 281 281 281 281 281 280 280 280 280 280 280 280 280 280 280 280 281 281 280 279 279 279 279 279 280 280 280 280 280 279 279 278 278 278 278 278 278 279 279 279 280 280
279 279 279 279 279 279 279 279 279 280 280 280 280 280 280 280 280 280 280 280 280 280 281 281 281 281 281 281 281 281 281 281 280 280 280 280 280 280 279 279 279 279 280 281 281 280 279 278 278 278 279 279 279 279 280 279 279 278 278 278 277 277 277 278 278 279 279 279 280
279 279 279 279 279 279 279 279 279 279 279 279 280 280 280 280 280 280 280 280 280 280 280 280 281 281 281 281 281 281 281 281 280 280 280 280 280 280 279 279 279 279 279 280 281 281 280 278 278 278 279 279 279 279 279 279 279 278 278 277 277 277 277 278 278 278 278 279 279
278 279 279 279 279 279 279 279 279 279 279 279 280 280 280 280 280 280 280 280 280 280 280 280 280 281 281 281 281 281 281 281 280 280 280 279 279 279 279 279 279 278 279 279 280 280 280 279 278 278 278 278 278 278 278 278 278 278 278 277 277 277 277 277 278 278 278 278 279
278 279 279 279 279 279 279 279 279 279 279 280 280 280 280 280 280 280 280 280 280 280 280 280 280 280 281 281 281 281 281 281 280 280 280 280 279 279 279 279 279 278 278 278 279 279 279 279 279 279 279 278 278 278 278 278 278 278 278 277 277 277 277 278 277 277 278 278 279
278 279 279 279 279 279 279 279 279 279 279 280 280 280 280 280 280 280 280 281 280 280 280 280 280 281 281 281 281 281 281 281 280 280 280 280 280 280 279 279 279 279 278 278 278 279 279 279 279 279 279 278 278 277 278 278 278 278 278 278 277 277 277 277 277 277 278 279 279
278 279 279 279 279 279 279 279 279 279 279 280 280 280 280 280 280 280 280 280 280 280 280 280 280 280 281 281 281 281 281 281 281 281 280 280 280 280 280 279 279 279 278 278 278 278 279 279 279 279 278 278 277 277 278 278 278 278 278 278 277 277 277 277 277 278 279 279 279
278 278 279 279 279 279 279 279 279 280 280 280 280 280 280 280 280 280 280 280 280 280 280 280 280 280 280 281 281 281 281 281 281 281 281 281 280 280 280 279 279 279 279 278 278 279 279 280 279 278 278 277 277 277 277 278 278 278 278 278 278 278 278 278 278 279 279 279 279
278 279 279 279 279 279 280 280 280 280 280 280 280 280 280 280 280 280 280 280 280 280 280 280 280 280 280 280 281 281 281 281 281 281 281 281 281 280 280 280 279 279 279 278 279 279 280 280 279 278 277 277 276 276 277 277 277 278 278 278 279 279 279 279 279 279 279 279 279
279 279 279 279 279 280 280 280 280 280 280 280 280 280 280 280 280 280 280 280 280 280 280 280 280 280 280 281 281 281 281 281 281 281 281 281 281 281 281 280 279 279 279 278 279 279 280 281 279 278 277 276 276 276 277 277 278 278 278 279 279 279 279 279 279 279 279 279 279
279 279 279 280 280 280 280 280 280 280 280 279 279 279 279 279 279 280 280 280 280 280 280 280 280 281 281 281 281 281 281 281 281 281 281 281 281 281 281 281 280 279 279 278 279 280 281 281 279 278 277 277 276 277 277 277 277 278 278 278 278 279 279 279 279 279 279 279 279
279 279 280 280 280 280 280 280 280 280 279 279 279 279 279 279 279 279 279 279 280 280 280 280 280 281 281 281 281 281 281 281 280 281 281 281 281 281 281 281 280 280 279 279 280 282 283 282 280 279 278 278 277 277 277 277 278 278 278 278 278 278 278 279 279 279 279 279 279
279 279 279 280 280 280 280 280 279 279 279 279 279 279 279 279 279 279 279 279 279 280 280 280 280 281 281 281 281 281 281 280 280 280 281 281 281 281 281 281 281 280 280 280 282 285 285 284 281 280 279 278 278 278 278 278 278 278 278 278 278 278 278 278 278 278 279 279 279
279 279 279 279 279 279 279 279 279 279 279 279 279 279 279 279 279 279 279 279 279 279 280 280 280 281 281 281 281 281 280 280 280 280 280 280 280 281 280 281 281 280 280 281 284 285 286 286 284 282 280 279 279 278 278 278 278 278 278 278 278 278 278 277 278 278 278 278 279
278 278 279 279 279 279 279 279 279 279 279 279 279 279 278 278 278 278 278 278 279 279 279 280 280 281 281 280 280 280 280 280 280 280 280 280 280 280 280 281 280 280 280 282 284 286 286 288 286 284 282 280 279 278 278 278 278 278 278 278 278 277 277 277 277 278 278 278 279
278 278 279 279 279 279 279 279 279 279 279 279 279 278 278 278 278 278 278 278 278 279 279 279 280 280 280 280 280 280 279 280 280 280 280 280 280 280 280 280 280 281 282 283 285 286 286 287 286 285 283 281 280 279 279 278 278 278 278 277 277 277 277 277 277 278 278 278 278
277 278 279 279 279 279 279 279 279 279 279 279 279 278 278 278 278 278 278 278 278 278 279 279 280 280 280 280 280 280 280 280 280 280 280 280 280 280 280 280 280 281 282 284 285 285 286 287 286 285 283 282 280 279 279 279 278 278 278 277 277 277 277 277 277 277 278 278 278
277 278 278 278 279 279 279 279 279 279 279 279 279 278 278 278 278 278 278 278 278 278 279 279 279 279 279 279 279 279 279 280 280 280 280 280 280 280 280 280 280 281 282 284 285 285 286 286 286 285 284 283 281 280 279 279 279 278 278 277 277 277 277 277 277 277 277 278 278
277 278 278 278 278 279 279 279 279 279 279 279 279 278 278 278 277 277 277 278 278 278 279 279 279 279 279 279 279 279 279 280 280 280 280 280 280 280 280 280 280 281 282 284 285 285 286 286 286 285 284 283 281 280 280 279 279 279 278 278 278 277 277 277 277 277 277 277 278
277 278 278 278 278 279 279 279 279 279 279 279 279 278 278 278 278 278 278 278 278 278 278 279 278 278 279 279 279 279 279 279 279 280 280 280 280 280 280 280 280 281 282 284 285 285 286 286 286 285 284 282 281 280 279 279 279 279 279 279 278 278 277 277 277 277 277 277 278
277 277 278 278 279 279 279 279 279 279 279 279 279 278 278 278 278 278 278 278 278 278 278 278 278 278 278 278 279 279 279 279 279 280 280 280 280 280 280 280 280 281 283 284 285 285 285 286 286 285 284 282 281 280 279 279 280 280 280 280 279 279 278 277 277 277 277 277 278
276 277 278 278 279 279 279 279 280 279 279 279 279 279 279 278 278 278 278 278 278 278 278 278 278 278 278 278 279 279 279 279 279 280 280 280 279 279 279 280 280 282 283 284 285 285 285 286 286 286 284 282 281 280 279 280 280 280 280 280 280 279 278 278 277 277 277 278 278
277 277 278 278 279 279 279 279 279 279 279 279 279 279 279 279 278 278 278 278 278 278 278 278 278 278 278 279 279 279 279 279 279 279 279 280 279 279 279 279 280 281 283 284 284 285 285 286 286 285 283 281 280 280 280 280 280 280 280 280 280 280 279 278 278 278 278 278 278
277 278 278 278 278 279 279 279 279 279 279 279 279 279 279 279 279 278 279 279 278 278 278 278 278 278 278 278 279 279 279 279 279 279 279 280 279 279 279 279 280 281 282 283 284 284 285 286 286 285 283 280 280 280 281 281 280 280 280 280 280 280 279 279 278 278 278 278 278
278 278 278 278 278 279 279 279 279 279 279 279 279 279 279 279 279 279 279 279 278 278 277 277 277 278 278 278 278 279 279 279 279 279 279 280 279 279 279 279 279 280 281 283 283 284 285 286 286 285 283 280 280 281 281 281 280 280 280 280 280 280 280 279 279 278 278 278 279
278 278 278 278 278 278 279 279 279 279 279 279 279 279 279 279 279 279 279 279 278 278 277 277 277 278 278 278 279 279 279 280 280 280 280 280 280 279 279 279 279 280 281 282 283 284 285 286 286 286 284 279 281 281 281 281 280 280 280 280 280 280 280 280 279 279 278 278 279
278 278 278 278 278 279 279 279 279 279 279 279 279 279 279 279 279 279 279 279 278 278 278 277 278 278 279 279 279 279 280 280 280 280 280 280 280 280 280 279 279 280 281 282 283 284 285 285 286 286 285 281 281 282 281 281 280 280 280 280 280 280 280 280 279 279 278 278 279
278 278 278 278 279 279 279 279 279 279 279 279 279 279 279 279 279 279 279 279 279 278 278 278 278 279 279 279 279 279 279 280 280 280 281 280 280 281 281 280 279 280 281 282 283 284 284 285 285 286 286 283 282 282 281 281 280 280 280 280 280 280 280 280 279 279 278 278 279
278 279 279 279 279 279 279 279 279 279 279 279 279 279 279 280 279 279 279 279 279 279 278 278 279 279 279 280 279 279 279 280 280 281 281 281 281 281 281 280 280 280 280 281 282 283 284 285 285 286 286 285 284 283 282 281 280 280 280 280 280 279 279 279 279 279 278 278 278
Wind_Speed
5 5 5 5 5 5 5 5 6 6 6 6 7 7 7 8 8 8 8 8 8 8 8 9 9 10 13 16 17 18 18 18 18 19 19 20 20 20 21 20 18 17 16 15 15 13 11 10 8 6 5 5 6 6 7 7 8 9 9 9 9 9 10 11 11 12 13 13 11
5 5 5 5 5 5 5 5 6 6 6 6 6 7 7 7 7 8 8 8 8 8 9 9 10 12 14 16 16 17 17 17 18 18 18 19 19 20 20 19 19 18 17 15 14 12 10 10 8 6 5 5 6 6 7 7 7 8 9 10 9 8 9 9 10 11 12 12 11
5 5 5 5 6 6 6 5 6 7 8 7 7 7 7 7 7 7 8 8 9 9 9 9 10 12 14 16 15 15 16 16 17 17 17 17 18 19 20 19 19 18 17 15 13 11 10 10 8 6 5 5 6 6 7 7 8 8 9 10 8 7 7 7 9 9 9 8 9
6 6 6 6 7 7 7 6 7 8 8 7 7 7 7 7 7 7 8 9 10 10 9 10 10 11 13 14 15 16 16 16 17 17 16 16 18 19 20 20 20 18 17 15 14 13 11 10 7 6 5 6 7 7 7 6 8 8 8 8 7 7 7 7 7 7 7 7 8
6 6 6 6 7 8 8 7 9 9 8 7 7 7 7 7 7 7 8 9 9 9 10 12 11 11 12 14 16 17 17 17 17 16 15 16 17 18 19 20 20 18 17 15 15 14 12 11 7 5 5 6 6 6 7 8 8 8 7 6 6 6 7 7 7 7 7 7 7
6 6 6 6 7 8 8 8 9 9 8 7 8 8 8 7 7 8 9 9 9 11 12 13 12 12 13 15 15 16 16 16 15 15 15 16 16 17 18 19 20 19 17 15 15 15 13 11 7 6 6 6 6 6 7 8 8 8 7 7 6 6 7 7 7 7 8 8 9
6 6 7 7 7 8 8 8 9 9 9 8 9 10 10 9 10 10 11 10 10 10 11 10 11 12 13 14 14 15 15 15 15 16 16 15 16 17 18 18 19 19 18 16 15 14 13 11 8 7 6 6 6 7 8 8 8 8 8 7 6 6 6 7 7 7 8 10 12
7 7 7 7 8 8 9 10 9 9 8 7 9 10 11 11 12 12 12 10 10 10 10 9 11 13 14 14 14 14 15 15 15 15 16 15 17 17 17 17 18 19 19 17 15 14 13 10 8 7 7 6 6 7 8 10 9 9 8 8 7 6 6 6 6 7 9 11 12
6 6 7 7 8 8 9 10 10 10 9 9 10 11 11 12 12 12 11 10 10 10 10 10 12 13 14 14 14 14 14 14 15 15 15 16 17 17 17 16 17 18 18 17 16 15 13 10 8 7 7 7 7 8 9 11 11 10 9 8 8 8 8 7 8 9 10 11 11
6 7 7 7 8 8 9 10 10 10 10 10 11 11 11 11 11 11 10 9 10 10 11 11 12 13 13 14 13 13 13 13 13 14 15 15 16 16 16 15 16 17 17 17 15 14 13 10 9 9 9 8 8 9 10 11 11 11 10 7 8 9 10 10 10 11 11 10 11
7 7 7 7 8 9 9 10 9 9 9 9 10 11 11 11 11 10 10 10 11 11 12 12 12 13 12 12 12 12 13 13 13 14 14 15 16 16 16 15 16 17 17 17 15 13 12 10 10 11 11 10 9 9 9 10 10 10 10 8 9 10 11 11 11 10 10 11 11
7 7 7 7 8 9 9 9 8 8 9 9 10 10 10 10 11 11 11 12 12 12 12 12 12 12 12 10 11 12 12 13 13 14 14 15 15 16 16 16 16 17 17 17 15 13 11 11 12 13 13 12 9 8 9 10 10 10 10 10 10 10 10 11 11 10 9 11 11
7 7 7 8 8 9 9 9 8 8 8 9 10 10 10 10 11 11 11 12 12 11 11 11 12 11 11 11 11 11 12 12 13 13 13 14 14 15 15 15 16 16 16 16 14 13 12 12 13 14 13 12 10 9 9 10 10 10 10 10 10 10 10 11 11 10 11 12 12
7 7 8 8 8 8 8 8 8 8 8 9 9 9 9 10 10 10 11 11 11 11 11 11 11 10 11 11 11 12 12 12 12 13 13 14 14 14 15 14 15 15 15 14 14 14 14 13 14 13 13 12 11 11 10 10 9 9 10 10 10 10 10 11 11 11 11 12 12
7 7 8 8 8 8 8 8 7 7 8 9 9 9 9 9 9 10 10 11 11 11 10 10 10 10 11 12 12 12 12 12 12 13 13 14 14 14 14 14 14 14 14 14 14 14 14 13 13 13 13 12 11 11 10 10 9 9 9 9 10 10 10 11 11 11 11 12 12
7 7 8 8 8 8 8 8 7 7 8 9 9 9 9 9 9 9 10 11 10 10 10 11 11 11 11 12 12 12 12 12 12 12 13 13 13 14 14 13 13 13 14 15 15 14 13 13 12 12 12 12 11 10 10 10 9 9 9 9 9 9 10 10 11 11 11 11 12
7 7 8 8 8 8 8 8 8 8 8 9 10 10 9 9 9 9 10 10 10 10 11 12 11 11 11 11 12 12 11 11 12 12 12 12 13 13 13 13 12 12 13 14 14 14 14 13 12 12 11 11 10 10 10 9 9 9 9 9 9 9 10 10 10 10 10 11 11
7 7 8 8 9 9 9 9 9 9 10 10 10 10 10 10 10 10 10 11 11 11 12 12 12 11 11 12 11 11 11 11 11 12 12 12 12 13 13 13 12 12 12 12 13 13 13 13 12 11 11 10 10 9 9 9 9 9 9 9 9 9 9 9 9 9 10 11 11
7 8 8 8 9 9 9 10 10 10 10 10 10 10 10 11 11 11 11 11 11 12 12 12 12 12 12 12 12 11 11 11 12 12 12 12 12 12 12 13 12 11 11 11 12 12 12 12 12 11 10 10 9 9 9 9 8 8 8 8 8 8 8 9 9 9 10 11 11
8 8 8 9 9 9 10 10 10 10 10 10 10 11 11 11 11 11 11 11 12 12 12 12 12 12 12 12 12 12 11 10 11 12 13 12 12 12 12 12 12 11 10 10 11 11 12 11 11 10 10 10 10 10 10 9 9 8 8 7 7 8 9 9 9 10 10 11 11
8 8 9 9 9 9 10 10 10 10 10 10 11 11 11 12 12 12 12 12 12 12 12 12 12 12 12 12 12 12 12 10 11 12 12 12 12 12 12 12 11 10 9 9 10 11 11 11 10 10 9 9 9 9 9 9 9 9 8 8 8 9 9 10 10 10 10 11 11
8 8 9 9 9 10 10 10 10 10 10 10 11 11 11 11 11 12 12 12 12 12 12 12 12 12 12 12 12 12 12 11 11 12 12 12 12 12 12 11 10 10 9 9 10 10 9 9 9 8 8 8 8 8 9 9 9 9 10 10 10 10 10 10 10 10 10 10 11
8 9 9 9 9 10 10 10 10 10 10 10 11 11 11 11 12 12 12 11 11 11 11 11 11 12 12 12 12 12 12 12 12 12 12 12 12 13 13 12 10 9 9 9 10 9 8 6 7 7 7 7 7 7 8 9 9 9 10 11 10 10 10 10 10 10 10 10 10
9 9 8 8 9 9 10 10 10 10 10 10 11 11 11 11 11 11 11 11 11 11 11 10 10 11 12 12 11 11 12 12 13 13 13 13 13 13 13 12 10 9 9 9 11 12 9 2 4 5 5 6 6 7 7 8 8 9 10 10 10 10 10 10 10 10 10 10 10
9 9 9 9 9 9 10 10 10 10 10 10 11 11 11 11 11 11 11 11 11 11 11 11 11 11 11 11 11 11 11 12 13 13 13 14 14 14 13 11 10 9 8 9 16 19 16 7 1 2 3 5 6 6 7 7 8 9 9 10 10 10 10 11 10 10 10 10 10
9 9 9 9 9 9 10 10 10 10 10 10 11 11 11 11 11 11 11 11 11 11 11 11 11 11 10 10 10 11 11 11 12 12 13 13 14 14 13 11 9 8 7 11 18 22 21 15 7 3 3 4 6 6 7 7 8 8 9 10 10 10 10 11 11 11 11 10 10
9 9 9 9 9 10 10 10 10 10 10 10 11 11 11 11 10 10 11 11 11 11 11 10 10 10 10 9 10 11 11 11 12 12 13 13 14 14 14 12 10 8 9 14 19 22 22 20 12 8 5 5 5 6 7 7 8 8 9 9 9 10 11 11 11 11 11 11 11
9 9 9 9 9 9 9 9 10 10 10 10 11 11 11 11 11 11 11 11 11 11 10 9 9 8 8 8 9 11 12 12 12 12 12 13 14 14 14 12 10 10 12 17 20 22 22 21 13 9 8 6 5 6 6 7 7 7 7 8 9 10 11 11 11 11 11 12 11
9 9 9 9 9 9 9 9 10 10 10 10 10 11 11 11 11 11 11 11 11 10 9 8 8 7 8 9 10 11 12 12 12 12 12 13 14 14 14 13 12 13 15 19 20 21 21 20 13 10 9 8 5 5 5 6 6 7 7 7 8 10 11 11 10 11 11 12 12
9 9 9 9 9 9 9 9 10 10 10 10 10 10 11 10 11 11 11 11 11 10 9 8 8 9 10 11 11 11 11 11 11 12 13 14 14 14 14 14 13 13 15 19 20 21 21 20 14 10 8 8 6 5 5 6 6 6 6 6 8 10 11 11 12 12 12 12 12
8 8 9 9 9 9 9 9 10 10 10 10 10 10 11 10 11 11 10 10 10 10 10 10 11 11 12 11 11 11 11 11 12 12 13 14 14 15 15 15 14 14 15 19 20 21 22 21 15 10 7 8 6 5 5 6 6 6 6 6 8 10 11 11 11 12 13 13 13
8 8 9 9 9 9 9 9 10 10 10 10 10 10 10 11 11 10 10 10 10 11 11 11 11 12 12 12 11 11 12 12 12 13 13 13 14 15 15 15 14 14 15 19 21 22 22 22 18 12 7 6 5 5 6 6 6 6 6 7 8 9 10 10 10 12 13 14 13
8 8 8 9 9 9 9 9 9 10 10 10 10 10 10 11 10 10 10 10 10 10 11 11 11 12 12 12 12 12 12 12 13 13 14 14 14 15 15 14 13 13 16 20 21 22 23 23 20 14 7 4 4 5 6 7 6 6 6 7 8 9 9 10 11 11 13 13 13
8 8 8 8 8 9 9 9 9 10 10 10 10 10 10 10 10 10 10 10 9 10 10 10 11 11 11 11 11 12 12 12 12 13 14 14 14 15 14 13 11 13 17 20 22 22 23 24 21 14 6 2 3 5 6 7 6 6 7 8 9 9 9 9 10 11 12 13 12
8 8 8 8 8 8 9 9 9 10 10 10 10 10 10 10 10 10 10 10 10 10 10 10 10 10 10 11 11 12 12 13 13 13 14 14 14 14 14 14 13 15 18 21 22 22 22 23 21 13 4 3 3 4 5 6 7 8 9 9 10 9 9 9 9 10 11 11 12
7 8 8 8 8 9 9 9 9 10 10 10 11 11 11 11 10 10 10 10 10 10 10 10 10 10 11 11 11 11 12 13 13 13 13 13 14 14 14 14 14 16 19 21 22 22 22 23 21 13 4 4 3 4 4 5 6 7 9 10 10 10 10 9 9 9 10 10 11
7 7 8 8 8 9 9 9 9 10 10 10 11 11 11 11 10 10 9 10 10 10 10 10 10 10 11 11 11 11 12 13 13 13 13 13 13 14 14 14 15 16 17 20 21 22 22 23 21 14 5 4 3 3 4 5 6 6 8 9 9 9 9 9 9 9 9 10 11
7 7 7 8 8 8 9 9 9 10 10 10 11 11 10 10 10 9 9 9 9 10 10 10 10 11 11 11 12 12 13 13 13 13 13 13 13 13 14 14 14 15 16 18 20 22 22 22 22 15 6 3 3 3 5 5 6 6 7 7 7 8 8 8 8 8 9 10 12
6 7 7 8 8 8 9 9 9 9 10 10 10 10 10 10 9 9 9 9 9 9 10 10 10 11 11 12 12 12 13 13 13 13 13 13 13 13 14 14 13 14 15 18 20 21 22 22 23 18 9 3 3 4 4 5 6 7 7 6 7 7 8 7 7 8 9 11 13
7 7 7 8 8 8 8 9 9 9 9 10 10 10 10 10 10 9 9 9 9 9 9 10 11 11 11 11 12 12 13 13 12 12 12 13 13 13 14 13 13 14 15 17 19 20 21 22 23 20 14 4 4 4 4 5 6 7 7 6 6 6 6 7 7 7 8 10 11
7 7 7 8 8 8 8 9 9 9 9 9 10 10 10 10 9 9 9 9 9 9 9 9 10 11 12 11 11 11 12 13 13 13 13 13 13 13 12 12 13 13 14 15 18 19 21 22 23 22 18 10 7 5 4 5 6 6 7 7 7 6 6 6 7 7 8 9 9
Wind_Direction
327 323 316 312 312 311 309 306 306 307 310 314 316 318 318 318 318 319 320 320 319 318 318 318 318 318 320 323 325 327 328 328 329 330 331 332 332 332 333 333 335 341 346 349 349 349 348 348 343 333 316 306 301 298 296 295 296 295 295 294 293 291 289 287 285 284 284 283 281
325 321 316 311 310 308 306 304 306 309 312 316 316 317 317 317 318 318 318 318 317 317 317 316 317 319 321 324 326 328 328 328 330 332 333 333 333 334 334 334 336 341 346 349 351 350 349 347 342 333 321 311 305 302 299 298 296 295 294 294 293 291 289 287 286 285 284 283 282
322 320 316 312 312 310 309 307 310 314 317 318 316 315 315 316 317 317 316 316 316 316 316 317 318 320 322 325 327 328 328 329 331 333 335 335 335 336 336 334 335 340 345 348 349 349 349 346 339 331 322 316 311 307 304 301 299 297 296 296 294 292 290 288 287 287 286 285 285
320 318 316 314 314 314 313 312 314 317 318 318 314 313 313 316 316 315 314 314 315 316 317 319 319 321 324 326 327 327 328 331 333 335 336 336 337 337 337 335 335 339 345 347 346 346 347 345 337 329 322 317 312 308 306 304 302 299 296 296 294 292 291 288 289 289 289 288 288
317 317 316 313 315 314 314 314 316 317 317 314 312 312 314 316 315 313 314 315 316 318 319 321 321 323 325 326 327 327 329 332 334 336 337 337 338 338 338 337 335 338 343 347 345 344 344 344 337 330 325 320 315 311 308 307 304 302 299 297 296 294 293 292 293 293 292 290 289
315 314 313 311 313 314 314 315 316 315 314 311 310 313 316 318 316 316 316 316 316 318 320 322 322 324 326 327 327 329 331 333 335 336 337 338 339 340 340 339 337 338 341 347 345 344 343 343 337 333 331 327 321 319 317 316 312 308 305 303 301 299 297 296 296 294 293 291 290
312 312 311 311 313 314 315 316 314 313 311 308 311 315 318 319 317 317 317 316 317 319 322 322 325 326 327 328 329 330 332 334 335 337 338 339 340 340 341 341 339 339 341 346 346 344 342 341 337 336 336 335 332 331 330 327 322 316 312 309 307 304 300 298 296 295 294 294 293
308 309 310 311 312 313 314 316 313 312 310 309 313 317 319 319 319 319 319 318 319 321 322 322 325 326 327 328 330 331 333 334 335 337 339 339 340 341 342 343 341 340 340 344 345 344 342 340 338 338 338 337 337 338 337 335 331 328 324 321 319 316 313 309 307 305 303 302 302
306 308 309 309 311 314 316 315 313 311 311 311 315 318 319 319 320 319 319 319 320 320 321 321 324 326 327 329 330 331 333 334 336 337 339 339 340 341 342 343 342 340 339 342 343 343 341 339 339 339 339 339 340 341 341 340 340 340 339 336 336 335 335 333 330 326 322 319 319
307 308 309 310 315 316 316 314 312 311 310 311 315 317 319 319 320 320 320 319 318 318 319 321 323 325 326 328 329 331 332 333 335 336 338 339 340 341 342 343 341 339 339 341 342 342 340 338 338 338 338 338 340 341 342 343 344 345 346 346 345 344 344 346 342 338 335 332 333
306 308 310 313 317 316 315 313 311 311 310 312 316 318 319 320 320 320 319 318 317 318 319 321 322 324 325 326 327 329 331 332 334 336 337 338 340 341 342 342 341 339 338 338 340 340 339 337 335 334 335 336 338 340 341 342 343 345 346 346 345 343 343 344 343 340 336 334 336
306 309 311 314 316 315 314 314 312 311 310 312 316 318 319 319 320 320 319 318 318 319 319 320 321 322 323 323 325 327 328 330 332 334 335 337 339 340 341 342 341 339 338 337 339 339 338 335 332 331 332 335 336 339 340 341 342 343 344 345 343 342 340 340 340 338 336 335 336
308 310 312 314 315 314 314 314 312 310 310 313 316 318 319 318 319 319 319 319 320 319 318 319 319 320 320 321 322 324 325 327 330 332 333 335 337 339 341 341 340 339 337 335 337 338 337 334 331 329 330 334 336 338 339 340 341 342 342 344 343 341 340 338 339 338 337 337 338
309 311 312 314 315 315 314 315 312 310 311 314 317 318 318 317 318 319 319 319 318 317 316 317 318 319 319 320 321 321 323 324 327 329 331 333 336 338 339 339 338 338 336 334 334 335 335 333 330 328 329 332 334 336 338 340 341 341 341 342 342 340 339 338 339 339 339 339 340
311 312 314 314 315 315 315 316 312 311 312 315 318 318 317 315 317 318 318 318 316 315 315 317 317 317 317 318 320 321 322 323 325 327 329 331 334 335 336 336 335 335 335 333 331 331 332 330 327 326 327 330 333 334 336 339 340 340 340 340 339 338 337 337 339 339 339 339 340
313 313 314 315 316 316 316 316 313 313 314 316 317 317 315 314 315 316 316 315 314 314 315 317 316 316 316 318 320 321 322 322 324 326 327 329 331 332 332 332 332 332 332 331 330 328 327 326 324 323 325 328 330 331 333 336 337 338 338 337 338 337 336 337 339 338 337 338 340
313 314 315 315 316 316 316 316 314 313 313 315 315 315 314 314 313 313 314 314 314 314 315 316 315 316 316 318 320 321 322 322 323 324 325 326 327 327 328 328 328 328 329 329 328 326 323 321 320 320 322 325 326 327 329 333 334 335 336 336 336 335 334 335 336 335 336 338 340
313 314 315 315 316 316 315 314 312 312 312 313 313 313 313 313 312 312 311 312 313 313 314 315 314 315 316 318 320 321 322 321 322 322 323 323 323 323 323 324 324 325 326 326 325 322 319 316 316 317 319 323 324 325 326 330 332 333 334 333 333 332 332 332 333 334 335 338 340
313 314 314 314 314 314 313 312 311 311 311 311 311 311 311 311 310 310 310 310 312 313 314 314 314 314 315 317 319 320 321 320 320 320 320 321 321 321 321 321 320 320 321 322 321 318 315 312 312 314 317 320 322 323 325 327 329 329 328 327 328 329 330 330 332 333 335 337 337
312 313 313 312 312 311 311 310 310 310 310 310 310 310 310 310 310 309 309 310 311 312 313 313 313 314 315 317 318 320 320 319 320 320 320 320 320 319 319 319 316 315 316 317 316 314 311 307 307 310 314 317 320 322 324 326 326 325 324 323 329 332 333 332 333 333 334 334 334
310 311 310 309 308 308 308 309 309 309 309 309 309 310 310 310 309 309 309 309 310 312 313 313 313 313 314 316 317 319 320 318 319 320 320 320 319 319 318 317 313 311 310 311 311 308 304 299 300 303 307 312 315 318 321 324 325 327 329 333 337 338 337 335 334 334 333 331 332
309 308 308 306 306 306 307 308 309 309 309 310 310 311 310 310 309 309 309 309 311 312 313 313 313 313 313 314 316 317 318 317 319 319 320 320 320 320 319 317 312 309 308 309 309 304 296 285 285 289 295 303 305 312 318 324 327 331 336 339 339 339 337 336 335 333 331 329 329
306 306 305 303 304 306 307 308 309 309 310 311 312 312 311 311 310 309 309 310 311 312 313 312 311 311 310 311 312 314 316 317 318 319 320 321 321 322 321 319 314 313 313 313 310 307 298 260 261 270 283 297 301 309 317 323 329 333 337 338 338 337 336 334 333 331 329 328 329
304 304 303 302 305 306 308 309 310 311 312 313 314 314 313 312 311 310 310 309 310 310 311 309 308 307 307 307 310 312 315 317 318 319 320 322 323 323 323 321 320 320 319 315 314 321 326 259 239 258 285 301 308 315 321 324 330 334 337 337 337 336 335 334 332 331 330 329 329
303 303 302 302 305 307 309 310 312 313 314 315 315 315 315 313 312 311 309 309 309 309 308 306 305 304 304 306 309 313 316 317 318 319 320 321 322 323 324 323 324 324 321 314 316 325 333 344 300 272 308 317 323 324 324 324 331 335 338 339 338 337 335 333 333 332 331 329 328
303 302 302 304 306 308 310 313 314 315 316 317 317 317 316 315 312 310 309 308 308 308 307 305 303 303 304 306 310 314 316 317 318 319 320 320 322 323 323 324 325 322 316 314 319 325 333 343 348 0 358 340 334 330 327 327 333 337 339 341 340 339 337 334 333 333 332 330 327
302 302 303 305 307 310 312 315 316 317 318 319 319 318 317 315 312 310 309 307 307 306 305 303 303 304 305 306 310 313 315 317 318 319 319 320 320 321 322 322 323 319 316 318 322 327 333 341 348 2 15 1 341 332 329 329 334 338 341 344 344 342 340 337 334 333 332 331 328
301 301 303 306 308 311 314 317 318 320 321 321 320 319 317 316 313 311 309 308 307 306 305 304 306 307 307 307 310 312 314 316 318 319 319 320 320 320 321 321 322 320 319 322 326 329 334 342 351 6 17 10 348 331 324 324 329 335 342 347 347 346 344 341 337 334 332 331 329
298 301 304 306 309 312 315 319 320 321 322 321 321 320 318 316 315 312 310 309 308 307 307 309 310 310 309 309 310 311 313 315 317 318 319 320 320 320 319 320 320 321 322 324 327 330 335 343 353 6 15 10 354 336 324 321 323 330 339 347 349 349 348 344 340 336 334 331 330
297 301 303 305 308 312 316 319 321 321 322 321 321 320 319 317 316 314 312 310 309 308 309 311 311 311 310 309 309 310 312 315 316 318 319 320 319 319 319 319 320 320 321 324 328 331 335 340 346 356 5 7 355 335 317 311 314 322 333 343 348 350 350 346 341 338 336 334 331
297 299 301 304 307 312 315 318 320 320 320 320 320 320 320 319 317 316 314 313 310 309 309 310 311 311 311 310 309 310 311 313 315 317 318 319 319 318 318 317 318 318 320 324 328 331 333 336 338 344 355 1 349 327 305 298 303 313 326 339 345 349 350 347 342 339 337 335 333
296 297 299 302 307 311 314 317 318 319 319 319 319 320 320 320 318 318 316 314 311 310 311 312 313 313 312 311 310 310 311 312 314 316 317 318 318 317 317 316 317 317 319 323 327 330 331 331 333 337 345 353 336 314 296 289 295 306 322 336 342 347 349 347 342 339 337 335 333
294 295 297 301 306 310 313 316 317 317 318 317 318 319 320 320 319 319 317 314 312 312 313 314 314 314 312 311 310 310 311 311 313 315 316 318 317 317 316 316 315 316 318 322 326 328 328 327 330 333 337 336 315 299 291 290 296 311 326 337 342 346 347 345 341 338 336 333 331
290 292 296 301 305 308 311 314 315 316 316 317 318 319 320 320 320 319 318 316 315 314 314 314 313 312 310 310 310 310 310 310 312 315 317 318 318 317 317 316 314 315 318 320 323 325 326 325 330 335 342 288 282 283 286 294 308 324 334 338 342 345 345 342 337 334 332 331 330
285 290 295 300 304 307 310 312 313 314 315 316 318 319 320 320 320 319 318 318 316 315 314 313 311 310 308 309 308 308 308 310 312 315 317 319 319 318 317 316 314 315 318 320 321 323 323 323 329 338 357 195 244 266 282 299 319 332 337 337 339 342 342 339 334 331 330 328 329
285 290 295 299 303 306 308 311 312 313 314 316 318 319 319 320 319 318 318 317 316 315 314 313 312 310 310 310 310 309 309 311 314 316 318 320 320 319 318 317 316 317 318 319 319 320 322 322 328 339 10 175 224 261 287 312 327 334 336 336 336 338 339 337 332 330 328 326 329
284 289 293 297 300 303 307 309 310 312 314 316 317 318 319 319 317 317 317 317 316 315 315 313 312 311 311 312 311 310 310 311 314 316 319 321 321 321 319 318 317 317 317 316 317 318 320 320 326 336 4 170 228 274 307 328 331 332 332 333 333 334 335 334 331 330 328 326 329
282 286 291 293 296 300 303 306 308 311 313 315 316 317 317 316 315 315 316 316 315 314 313 312 311 311 311 311 309 309 310 311 314 317 319 321 321 321 320 319 317 315 314 313 314 316 317 318 322 331 348 182 250 296 323 331 329 328 329 330 329 330 332 331 331 330 329 327 331
281 282 284 286 291 296 300 304 307 309 312 314 315 315 315 314 314 314 315 313 312 311 310 309 309 309 309 309 308 309 310 312 314 317 319 320 321 321 320 317 315 312 310 309 311 313 315 317 319 326 333 225 271 301 320 324 323 324 325 326 325 327 329 331 330 329 328 329 333
278 277 278 282 288 294 299 302 305 308 310 312 313 313 313 313 312 312 311 309 308 307 306 305 305 306 308 309 308 309 310 312 315 317 319 320 320 319 317 314 311 308 306 306 308 311 313 315 318 323 326 288 290 299 310 315 317 319 321 323 324 326 327 330 330 330 329 330 333
277 277 279 282 287 292 297 301 304 307 309 310 310 311 311 311 310 310 309 308 307 306 304 303 305 306 308 310 309 309 311 312 315 318 320 320 319 317 314 311 307 304 303 304 307 310 312 314 317 320 322 316 309 305 306 308 310 315 319 322 324 326 327 329 330 330 330 331 332